Regional Weather Roundup
Issued by NWS

Home | Current Version | Previous Version | Text Only | Print | Product List | Glossary Off
Versions: 1 2 3 4 5 6 7 8 9 10 11 12 13 14 15 16 17 18 19 20 21 22 23 24 25 26 27 28 29 30 31 32 33 34 35 36 37 38 39 40 41 42 43 44 45 46 47 48 49 50

000
ASUS43 KFSD 270502
RWRSD

WEATHER ROUNDUP FOR SOUTH DAKOTA
NATIONAL WEATHER SERVICE SIOUX FALLS SD
1200 AM CDT MON MAR 27 2017

NOTE: "FAIR" INDICATES FEW OR NO CLOUDS BELOW 12,000 FEET WITH NO
SIGNIFICANT WEATHER AND/OR OBSTRUCTIONS TO VISIBILITY.


SDZ001>005-009-010-012>017-270600-
NORTHWEST AND NORTH CENTRAL SOUTH DAKOTA

CITY           SKY/WX    TMP DP  RH WIND       PRES   REMARKS
BUFFALO          N/A     42  36  79 W6        29.85S
FAITH            N/A     43  40  89 MISG      29.93S
MOBRIDGE       CLOUDY    45  36  70 CALM      29.91S
$$

SDZ012>016-024>037-041>051-057-063-072>074-270600-
SOUTHWEST AND SOUTH CENTRAL SOUTH DAKOTA

CITY           SKY/WX    TMP DP  RH WIND       PRES   REMARKS
RAPID CTY ARPT FOG       32  32 100 CALM      29.93F VSB 1/4
PIERRE         CLOUDY    41  38  89 CALM      29.95S
CUSTER         CLOUDY    32  30  92 NW3       29.92S
ELLSWORTH AFB  FOG       37  37 100 CALM      29.92  VSB 1
PHILIP         CLOUDY    41  38  89 CALM      29.95F
PINE RIDGE     CLOUDY    43  40  89 SE5       29.95F
SPEARFISH      FAIR      36  34  93 S10       29.93S
WINNER         MOCLDY    38  35  89 CALM      29.97F
$$

SDZ004>011-016>023-039-040-270600-
NORTHEAST SOUTH DAKOTA

CITY           SKY/WX    TMP DP  RH WIND       PRES   REMARKS
ABERDEEN       CLOUDY    39  34  82 S6        29.95R
WATERTOWN      CLOUDY    37  35  92 S6        29.94S
BROOKINGS      CLOUDY    36  35  96 CALM      29.93
SISSETON         N/A     34  33  96 SW5       29.94S WCI  30
$$

SDZ017-020-022-023-036>040-048>070-270600-
SOUTHEAST SOUTH DAKOTA

CITY           SKY/WX    TMP DP  RH WIND       PRES   REMARKS
SIOUX FALLS    CLOUDY    43  39  86 E5        29.96F
HURON          PTCLDY    38  36  92 SW7       29.96R
CHAMBERLAIN    FOG       33  33 100 CALM      29.97F VSB 1/2
MITCHELL       PTCLDY    41  37  86 NW5       29.96F
YANKTON        CLOUDY    45  39  81 CALM      29.95F
$$

ABBREVIATIONS USED IN REMARKS
   TC - TEMPERATURE IN CELSIUS
  WCI - WIND CHILL INDEX
   HX - HEAT INDEX
  VSB - VISIBILITY




USA.gov is the U.S. government's official web portal to all federal, state and local government web resources and services.